1520769600.38,6064,11.75,72814.5,9.19,-20.79,-20.73,0,*42
1520769601.65,6065,11.75,72812.5,9.19,-20.83,-20.79,0,*4C
1520769602.88,6066,11.69,72812.0,9.19,-20.43,-20.43,0,*4A
1520769604.15,6067,11.75,72814.5,9.19,-20.49,-20.49,0,*4B
1520769605.4,6068,11.69,72812.0,9.17,-20.99,-21.03,0,*48
1520769606.6,6069,11.69,72810.5,9.21,-20.43,-20.29,0,*42
1520769607.84,6070,11.75,72818.0,9.19,-20.59,-20.59,0,*4D
1520769609.06,6071,11.75,72814.5,9.19,-20.73,-20.73,0,*4C
1520769610.31,6072,11.75,72814.5,9.17,-20.99,-21.03,0,*43
1520769611.55,6073,11.75,72812.3,9.15,-21.17,-21.27,0,*41
1520769612.83,6074,11.75,72808.8,9.19,-21.27,-21.23,0,*4D
1520769614.06,6075,11.75,72814.8,9.17,-20.89,-20.83,0,*4C
1520769615.28,6076,11.75,72810.5,9.15,-20.69,-20.63,0,*4D
1520769616.51,6077,11.75,72816.5,9.17,-21.27,-21.17,0,*47
1520769617.78,6078,11.69,72810.5,9.15,-20.99,-20.83,0,*42
1520769619.03,6079,11.75,72816.3,9.19,-20.49,-20.43,0,*4E
1520769620.3,6080,11.75,72812.5,9.15,-20.49,-20.35,0,*45
1520769621.5,6081,11.75,72818.8,9.17,-20.39,-20.25,0,*40
1520769622.77,6082,11.75,72814.8,9.15,-21.33,-21.23,0,*4D
1520769624.0,6083,11.75,72812.3,9.17,-21.03,-21.13,0,*4E
1520769625.22,6084,11.75,72814.8,9.17,-20.63,-20.53,0,*4B
1520769626.49,6085,11.75,72812.3,9.15,-20.79,-20.79,0,*4B
1520769627.74,6086,11.75,72812.3,9.15,-20.79,-20.89,0,*47
1520769628.96,6087,11.75,72812.3,9.15,-21.17,-21.13,0,*4D
1520769630.2,6088,11.75,72814.0,9.17,-21.03,-21.03,0,*44
1520769631.4,6089,11.75,72808.5,9.13,-20.25,-20.09,0,*4F
1520769632.6,6090,11.75,72816.0,9.13,-20.69,-20.69,0,*49
1520769633.83,6091,11.75,72812.3,9.15,-20.89,-20.89,0,*4E
1520769635.07,6092,11.75,72812.8,9.15,-21.03,-21.17,0,*48
1520769636.28,6093,11.75,72812.5,9.15,-21.63,-21.73,0,*4D
1520769637.54,6094,11.75,72812.0,9.13,-21.67,-21.67,0,*4D
1520769638.76,6095,11.75,72814.0,9.13,-21.83,-21.93,0,*4D
1520769640.01,6096,11.75,72814.8,9.11,-21.87,-22.03,0,*42
1520769641.29,6097,11.75,72814.0,9.11,-21.67,-21.57,0,*4F
1520769642.52,6098,11.75,72814.0,9.11,-20.93,-20.89,0,*48
1520769643.78,6099,11.75,72814.0,9.11,-20.63,-20.49,0,*4A
1520769645.03,6100,11.75,72812.5,9.11,-20.79,-20.73,0,*49
1520769646.26,6101,11.75,72814.8,9.11,-20.89,-20.89,0,*42
1520769647.48,6102,11.75,72814.0,9.09,-20.29,-20.19,0,*4B
1520769648.75,6103,11.75,72814.0,9.11,-20.35,-20.19,0,*4E
1520769650.02,6104,11.75,72814.3,9.11,-20.19,-20.19,0,*47
1520769651.21,6105,11.75,72812.0,9.13,-20.29,-20.39,0,*45
1520769652.43,6106,11.75,72812.5,9.13,-20.25,-20.15,0,*44
1520769653.63,6107,11.75,72820.0,9.13,-20.69,-20.69,0,*46
1520769654.82,6108,11.75,72816.8,9.13,-20.69,-20.69,0,*49
1520769656.02,6109,11.75,72814.3,9.13,-20.73,-20.59,0,*40
1520769657.26,6110,11.75,72814.5,9.15,-21.03,-21.13,0,*47
1520769658.5,6111,11.75,72814.3,9.11,-20.89,-20.89,0,*43
1520769659.76,6112,11.75,72814.8,9.11,-21.13,-21.23,0,*43
1520769661.02,6113,11.75,72812.5,9.11,-20.99,-20.89,0,*40
1520769662.25,6114,11.75,72814.0,9.11,-20.93,-20.89,0,*4D
1520769663.48,6115,11.75,72812.5,9.13,-20.83,-20.89,0,*4F
1520769664.69,6116,11.75,72814.5,9.13,-20.43,-20.29,0,*4A
1520769665.96,6117,11.75,72818.0,9.11,-20.19,-20.19,0,*45
1520769667.16,6118,11.75,72816.8,9.13,-19.95,-19.95,0,*48
1520769668.4,6119,11.75,72816.3,9.15,-20.09,-20.19,0,*4E
1520769669.65,6120,11.75,72814.0,9.15,-20.63,-20.53,0,*46
1520769670.84,6121,11.75,72814.0,9.13,-20.93,-21.09,0,*40
1520769672.04,6122,11.75,72814.3,9.13,-21.09,-20.93,0,*43
1520769673.25,6123,11.75,72814.8,9.15,-20.69,-20.69,0,*46
1520769674.46,6124,11.75,72810.3,9.13,-20.59,-20.59,0,*47
1520769675.66,6125,11.75,72812.0,9.13,-20.43,-20.29,0,*4A
1520769676.91,6126,11.75,72812.8,9.13,-20.83,-20.83,0,*45
1520769678.13,6127,11.75,72812.0,9.15,-21.13,-21.13,0,*42
1520769679.35,6128,11.75,72814.0,9.13,-21.39,-21.33,0,*41
1520769680.54,6129,11.75,72812.0,9.13,-21.39,-21.47,0,*43
1520769681.82,6130,11.75,72812.3,9.11,-21.53,-21.53,0,*40
1520769683.1,6131,11.75,72812.3,9.11,-21.53,-21.53,0,*41
1520769684.32,6132,11.75,72812.3,9.11,-21.09,-21.13,0,*49
1520769685.55,6133,11.75,72814.5,9.11,-21.09,-20.93,0,*41
1520769686.78,6134,11.75,72812.3,9.09,-21.13,-21.23,0,*4E
1520769688.03,6135,11.75,72810.5,9.09,-21.87,-21.87,0,*4C
1520769689.28,6136,11.75,72814.3,9.11,-21.13,-21.27,0,*41
1520769690.55,6137,11.75,72810.5,9.05,-21.03,-21.03,0,*42
1520769691.8,6138,11.75,72812.5,9.09,-20.49,-20.35,0,*4A
1520769693.01,6139,11.75,72814.0,9.09,-20.59,-20.43,0,*4B
1520769694.23,6140,11.75,72814.3,9.09,-20.89,-20.79,0,*41
1520769695.45,6141,11.75,72810.8,9.05,-21.13,-21.17,0,*47
1520769696.7,6142,11.75,72814.8,9.09,-21.23,-21.27,0,*48
1520769697.91,6143,11.75,72812.0,9.09,-20.89,-20.89,0,*4D
1520769699.13,6144,11.75,72810.5,9.05,-21.13,-21.17,0,*42
1520769700.36,6145,11.75,72812.8,9.05,-21.43,-21.33,0,*40
1520769701.6,6146,11.75,72812.5,9.05,-21.43,-21.33,0,*43
1520769702.84,6147,11.75,72814.0,9.05,-20.99,-20.93,0,*4F
1520769704.05,6148,11.75,72812.8,9.05,-21.43,-21.43,0,*4A
1520769705.32,6149,11.75,72816.0,9.05,-21.33,-21.27,0,*4E
1520769706.58,6150,11.75,72812.5,9.05,-21.03,-21.03,0,*43
1520769707.82,6151,11.75,72814.3,9.05,-21.17,-21.27,0,*41
1520769709.07,6152,11.75,72812.8,9.05,-20.79,-20.63,0,*4A
1520769710.25,6153,11.75,72810.3,9.03,-20.29,-20.25,0,*4A
1520769711.49,6154,11.75,72812.0,9.05,-20.93,-20.99,0,*4D
1520769712.76,6155,11.75,72812.3,9.05,-21.27,-21.27,0,*46
1520769713.98,6156,11.75,72812.0,9.05,-20.63,-20.63,0,*45
1520769715.25,6157,11.75,72814.3,9.05,-20.83,-20.83,0,*44
1520769716.49,6158,11.75,72812.3,9.05,-20.49,-20.39,0,*4C
1520769717.73,6159,11.75,72814.3,9.05,-20.79,-20.69,0,*4B
1520769718.97,6160,11.75,72812.0,9.05,-20.83,-20.69,0,*44
1520769720.21,6161,11.75,72812.0,9.05,-20.79,-20.63,0,*4A
1520769721.45,6162,11.75,72810.3,9.05,-20.79,-20.69,0,*43
1520769722.69,6163,11.75,72810.8,9.03,-21.03,-21.03,0,*45
1520769723.93,6164,11.75,72810.3,9.05,-20.89,-20.83,0,*4E
1520769725.18,6165,11.75,72812.0,9.05,-20.69,-20.53,0,*4C
1520769726.42,6166,11.75,72814.3,9.05,-20.63,-20.49,0,*4E
1520769727.64,6167,11.75,72812.8,9.05,-20.93,-20.93,0,*47
1520769728.91,6168,11.75,72810.0,9.05,-21.03,-21.03,0,*48
1520769730.15,6169,11.75,72810.3,9.05,-21.13,-20.99,0,*4A
1520769731.39,6170,11.75,72812.0,9.05,-20.53,-20.39,0,*4D
1520769732.61,6171,11.75,72812.8,9.05,-20.93,-20.93,0,*40
1520769733.83,6172,11.75,72808.5,9.05,-21.17,-21.17,0,*43
1520769735.09,6173,11.75,72810.5,9.05,-21.33,-21.27,0,*47
1520769736.33,6174,11.75,72808.8,9.05,-21.47,-21.57,0,*44
1520769737.55,6175,11.75,72808.8,9.01,-21.63,-21.47,0,*46
1520769738.79,6176,11.75,72814.3,9.01,-20.73,-20.83,0,*4C
1520769740.07,6177,11.75,72808.8,9.01,-21.23,-21.23,0,*42
1520769741.34,6178,11.75,72810.3,9.01,-21.67,-21.83,0,*47
1520769742.59,6179,11.75,72810.3,9.01,-22.31,-22.27,0,*4B
1520769743.8,6180,11.75,72808.8,9.01,-21.63,-21.63,0,*4A
1520769745.08,6181,11.75,72808.3,9.01,-21.03,-20.99,0,*49
1520769746.29,6182,11.75,72814.0,8.99,-21.09,-21.03,0,*42
1520769747.53,6183,11.75,72812.5,8.97,-21.27,-21.39,0,*48
1520769748.72,6184,11.75,72812.5,8.99,-21.09,-21.09,0,*4E
1520769749.95,6185,11.75,72812.5,8.99,-21.57,-21.57,0,*4F
1520769751.16,6186,11.75,72810.5,8.99,-21.27,-21.43,0,*4E
1520769752.43,6187,11.75,72812.5,8.97,-21.03,-21.03,0,*43
1520769753.63,6188,11.75,72810.5,8.99,-20.93,-20.93,0,*42
1520769754.87,6189,11.75,72814.0,8.97,-20.93,-21.03,0,*45
1520769756.06,6190,11.75,72812.5,8.99,-21.13,-21.13,0,*4B
1520769757.28,6191,11.75,72812.8,8.99,-20.79,-20.63,0,*41
1520769758.52,6192,11.75,72808.8,8.99,-21.27,-21.27,0,*49
1520769759.7,6193,11.75,72808.3,8.99,-21.09,-21.09,0,*48
1520769760.95,6194,11.75,72808.5,8.97,-21.27,-21.13,0,*46
1520769762.22,6195,11.75,72810.8,8.97,-21.53,-21.53,0,*40
1520769763.46,6196,11.75,72806.8,8.97,-21.67,-21.73,0,*46
1520769764.73,6197,11.75,72810.8,8.97,-21.53,-21.53,0,*42
1520769765.94,6198,11.75,72810.5,8.97,-21.43,-21.43,0,*4D
1520769767.13,6199,11.75,72808.3,8.95,-21.73,-21.73,0,*4E
1520769768.35,6200,11.75,72808.3,8.93,-21.47,-21.47,0,*4B
1520769769.59,6201,11.75,72810.8,8.95,-20.79,-20.79,0,*4C
1520769770.78,6202,11.75,72810.8,8.95,-20.69,-20.63,0,*45
1520769771.97,6203,11.75,72810.5,8.95,-21.17,-21.17,0,*4E
1520769773.16,6204,11.75,72808.0,8.95,-21.17,-21.43,0,*48
1520769774.44,6205,11.75,72810.5,8.93,-21.23,-21.23,0,*4E
1520769775.66,6206,11.75,72810.0,8.95,-21.57,-21.47,0,*4A
1520769776.89,6207,11.75,72816.0,8.93,-20.89,-20.89,0,*4C
1520769778.08,6208,11.75,72810.0,8.95,-21.17,-21.17,0,*45
1520769779.3,6209,11.75,72814.5,8.95,-20.89,-20.83,0,*4E
1520769780.57,6210,11.75,72810.5,8.93,-20.99,-20.99,0,*4A
1520769781.8,6211,11.75,72810.5,8.93,-20.89,-20.89,0,*4B
1520769783.02,6212,11.75,72808.3,8.93,-20.69,-20.69,0,*48
1520769784.29,6213,11.75,72808.8,8.93,-20.83,-20.83,0,*49
1520769785.48,6214,11.75,72810.0,8.95,-21.13,-21.13,0,*48
1520769786.73,6215,11.75,72808.8,8.93,-21.39,-21.23,0,*44
1520769787.95,6216,11.75,72810.5,8.93,-20.43,-20.43,0,*4C
1520769789.2,6217,11.75,72810.0,8.93,-20.83,-20.73,0,*42
1520769790.44,6218,11.75,72814.3,8.93,-21.33,-21.39,0,*48
1520769791.72,6219,11.75,72810.5,8.93,-21.23,-21.23,0,*43
1520769792.91,6220,11.75,72814.3,8.95,-21.13,-21.17,0,*4B
1520769794.16,6221,11.75,72810.8,8.95,-20.83,-20.83,0,*4E
1520769795.37,6222,11.75,72808.8,8.93,-21.17,-21.13,0,*4F
1520769796.64,6223,11.75,72810.3,8.93,-20.53,-20.53,0,*4A
1520769797.9,6224,11.75,72812.0,8.93,-20.43,-20.53,0,*4C
1520769799.09,6225,11.75,72808.8,8.95,-20.63,-20.69,0,*40
1520769800.31,6226,11.75,72808.5,8.95,-20.49,-20.39,0,*4E
1520769801.51,6227,11.75,72812.3,8.95,-20.39,-20.39,0,*48
1520769802.71,6228,11.75,72814.8,8.95,-20.39,-20.39,0,*47
1520769803.94,6229,11.75,72810.8,8.97,-20.63,-20.43,0,*46
1520769805.16,6230,11.75,72814.8,8.97,-20.63,-20.63,0,*4C
1520769806.41,6231,11.75,72812.3,8.97,-20.59,-20.49,0,*4C
1520769807.69,6232,11.75,72812.8,8.97,-21.23,-21.27,0,*4A
1520769808.91,6233,11.75,72812.0,8.97,-20.93,-20.89,0,*44
1520769810.14,6234,11.75,72808.8,8.95,-20.49,-20.39,0,*4D
1520769811.38,6235,11.75,72810.5,8.97,-20.89,-20.79,0,*46
1520769812.62,6236,11.75,72810.5,8.97,-21.09,-21.03,0,*40
1520769813.83,6237,11.75,72812.8,8.97,-21.09,-21.09,0,*4B
1520769815.03,6238,11.75,72812.0,8.95,-20.63,-20.39,0,*49
1520769816.27,6239,11.75,72808.0,8.95,-20.15,-20.19,0,*4B
1520769817.48,6240,11.75,72812.3,8.97,-21.13,-21.13,0,*4B
1520769818.75,6241,11.75,72812.0,8.97,-21.27,-21.27,0,*4A
1520769820.0,6242,11.75,72812.0,8.97,-20.79,-20.63,0,*42
1520769821.21,6243,11.75,72808.8,8.95,-20.19,-20.05,0,*47
1520769822.43,6244,11.75,72810.0,8.99,-20.49,-20.43,0,*4B
1520769823.65,6245,11.75,72812.0,8.97,-20.73,-20.73,0,*4E
1520769824.87,6246,11.75,72812.8,8.97,-21.09,-20.93,0,*4F
1520769826.13,6247,11.75,72810.0,8.97,-20.79,-20.79,0,*4C
1520769827.39,6248,11.75,72810.0,8.97,-19.85,-19.81,0,*47
1520769828.59,6249,11.75,72814.5,8.99,-20.63,-20.63,0,*4C
1520769829.81,6250,11.75,72812.3,8.97,-20.89,-20.73,0,*4F
1520769831.05,6251,11.75,72812.8,8.97,-21.23,-21.13,0,*48
1520769832.27,6252,11.75,72812.8,8.97,-21.39,-21.43,0,*45
1520769833.51,6253,11.75,72814.0,8.97,-21.27,-21.43,0,*4B
1520769834.75,6254,11.75,72812.8,8.97,-21.53,-21.43,0,*4F
1520769835.96,6255,11.75,72812.3,8.97,-21.13,-21.09,0,*44
1520769837.24,6256,11.75,72810.5,8.97,-21.23,-21.27,0,*48
1520769838.45,6257,11.75,72810.8,8.95,-20.93,-20.83,0,*4E
1520769839.69,6258,11.75,72814.5,8.95,-20.15,-20.15,0,*40
1520769840.91,6259,11.75,72812.8,8.95,-20.63,-20.49,0,*49
1520769842.14,6260,11.75,72812.0,8.97,-20.59,-20.43,0,*42
1520769843.36,6261,11.75,72814.3,8.97,-20.93,-20.93,0,*48
1520769844.58,6262,11.75,72808.5,8.97,-20.43,-20.43,0,*4B
1520769845.81,6263,11.75,72810.5,8.97,-20.89,-20.89,0,*4A
1520769847.04,6264,11.75,72810.5,8.97,-20.93,-20.89,0,*46
1520769848.24,6265,11.75,72808.8,8.99,-20.63,-20.59,0,*4B
1520769849.45,6266,11.75,72814.5,8.99,-21.09,-21.03,0,*4B
1520769850.7,6267,11.75,72814.3,8.97,-20.59,-20.49,0,*4F
1520769851.94,6268,11.75,72812.5,8.99,-20.79,-20.79,0,*4F
1520769853.19,6269,11.75,72814.8,8.97,-20.63,-20.49,0,*48
1520769854.39,6270,11.75,72814.8,8.99,-20.63,-20.59,0,*4F
1520769855.63,6271,11.75,72810.5,8.97,-20.79,-20.63,0,*42
1520769856.86,6272,11.75,72810.8,8.99,-20.15,-20.15,0,*44
1520769858.06,6273,11.75,72810.8,8.99,-20.63,-20.59,0,*4C
1520769859.25,6274,11.75,72814.0,8.99,-20.73,-20.73,0,*42
1520769860.51,6275,11.75,72810.3,8.97,-20.15,-20.15,0,*4D
1520769861.73,6276,11.75,72810.0,9.01,-19.95,-19.91,0,*44
1520769862.92,6277,11.75,72812.0,8.99,-20.73,-20.63,0,*40
1520769864.11,6278,11.75,72814.5,8.99,-21.13,-21.13,0,*4E
1520769865.33,6279,11.75,72810.5,8.99,-21.23,-21.39,0,*44
1520769866.54,6280,11.75,72812.0,8.99,-20.89,-20.89,0,*49
1520769867.78,6281,11.75,72810.5,9.01,-21.63,-21.53,0,*4B
1520769868.98,6282,11.75,72812.8,8.99,-20.89,-20.89,0,*4B
1520769870.2,6283,11.75,72808.3,8.99,-20.89,-20.79,0,*45
1520769871.44,6284,11.75,72812.0,8.97,-20.79,-20.73,0,*49
1520769872.65,6285,11.75,72810.5,8.99,-20.35,-20.29,0,*41
1520769873.83,6286,11.75,72808.5,8.99,-20.29,-20.29,0,*4F
1520769875.09,6287,11.75,72808.0,9.01,-20.99,-20.89,0,*4F
1520769876.34,6288,11.75,72810.0,9.01,-20.59,-20.53,0,*4B
1520769877.55,6289,11.75,72810.3,9.01,-20.29,-20.29,0,*40
1520769878.77,6290,11.75,72810.3,8.99,-20.79,-20.63,0,*43
1520769879.97,6291,11.75,72810.3,8.99,-20.63,-20.59,0,*40
1520769881.22,6292,11.75,72810.3,9.01,-20.59,-20.53,0,*40
1520769882.44,6293,11.75,72808.5,9.01,-20.39,-20.29,0,*4A
1520769883.67,6294,11.75,72808.5,8.99,-20.59,-20.49,0,*4D
1520769884.89,6295,11.75,72812.5,9.01,-20.29,-20.25,0,*41
1520769886.1,6296,11.75,72808.8,9.01,-20.29,-20.25,0,*42
1520769887.35,6297,11.75,72808.5,9.01,-20.53,-20.43,0,*4E
1520769888.59,6298,11.75,72810.5,9.01,-19.81,-19.75,0,*4B
1520769889.78,6299,11.75,72810.8,9.03,-20.39,-20.29,0,*42
1520769890.99,6300,11.75,72810.5,9.05,-20.05,-19.99,0,*4B
1520769892.2,6301,11.75,72810.8,9.03,-20.15,-20.09,0,*4E
1520769893.39,6302,11.75,72810.5,9.03,-20.39,-20.29,0,*41
1520769894.6,6303,11.75,72810.5,9.05,-20.09,-20.05,0,*4B
1520769895.82,6304,11.75,72812.5,9.09,-20.29,-20.19,0,*4F
1520769897.03,6305,11.75,72810.8,9.05,-19.99,-19.91,0,*49
1520769898.23,6306,11.75,72812.8,9.09,-19.99,-19.95,0,*42
1520769899.47,6307,11.75,72810.0,9.09,-20.79,-20.89,0,*40
1520769900.7,6308,11.75,72808.8,9.09,-20.79,-20.89,0,*4F
1520769901.93,6309,11.75,72810.0,9.05,-20.93,-20.83,0,*4C
1520769903.18,6310,11.75,72814.5,9.05,-21.03,-21.17,0,*40
1520769904.43,6311,11.75,72808.8,9.09,-21.53,-21.53,0,*48
1520769905.67,6312,11.75,72810.5,9.05,-21.13,-21.03,0,*46
1520769906.91,6313,11.75,72808.3,9.05,-21.03,-21.17,0,*43
1520769908.17,6314,11.75,72808.5,9.05,-21.33,-21.33,0,*41
1520769909.44,6315,11.75,72808.5,9.05,-20.83,-20.79,0,*45
1520769910.66,6316,11.75,72810.5,9.01,-20.73,-20.73,0,*47
1520769911.87,6317,11.75,72808.5,9.05,-20.93,-20.93,0,*42
1520769913.12,6318,11.75,72808.0,9.03,-20.83,-20.83,0,*4B
1520769914.36,6319,11.75,72812.0,9.05,-20.63,-20.53,0,*4F
1520769915.58,6320,11.75,72808.5,9.05,-20.93,-20.93,0,*46
1520769916.82,6321,11.75,72810.5,9.05,-20.53,-20.39,0,*4B
1520769918.04,6322,11.75,72812.0,9.05,-20.69,-20.63,0,*4E
1520769919.28,6323,11.75,72814.0,9.05,-20.69,-20.49,0,*47
1520769920.55,6324,11.75,72808.0,9.05,-20.79,-20.83,0,*47
1520769921.82,6325,11.75,72810.5,9.05,-21.27,-21.27,0,*43
1520769923.08,6326,11.75,72808.0,9.05,-20.79,-20.83,0,*45
1520769924.35,6327,11.75,72808.3,9.05,-20.53,-20.53,0,*41
1520769925.57,6328,11.75,72814.3,9.03,-20.89,-20.99,0,*49
1520769926.76,6329,11.75,72814.3,9.03,-20.73,-20.69,0,*42
1520769927.96,6330,11.75,72808.5,9.03,-20.43,-20.43,0,*41
1520769929.15,6331,11.75,72812.5,9.03,-20.39,-20.25,0,*4D
1520769930.36,6332,11.75,72808.8,9.05,-20.09,-20.05,0,*49
1520769931.62,6333,11.75,72808.5,9.05,-20.19,-20.19,0,*44
1520769932.86,6334,11.75,72812.8,9.05,-20.39,-20.35,0,*4F
1520769934.11,6335,11.75,72810.8,9.05,-20.83,-20.89,0,*48
1520769935.31,6336,11.75,72814.8,9.09,-20.93,-20.93,0,*4D
1520769936.56,6337,11.75,72810.5,9.05,-20.53,-20.39,0,*4C
1520769937.8,6338,11.75,72810.3,9.05,-20.63,-20.53,0,*4C
1520769939.07,6339,11.75,72808.3,9.05,-21.03,-20.99,0,*4C
1520769940.29,6340,11.75,72810.3,9.05,-21.47,-21.47,0,*40
1520769941.55,6341,11.75,72814.0,9.05,-20.99,-20.83,0,*4A
1520769942.76,6342,11.75,72810.8,9.05,-20.05,-19.99,0,*4D
1520769944.02,6343,11.75,72808.8,9.05,-20.79,-20.79,0,*43
1520769945.24,6344,11.75,72812.0,9.05,-20.69,-20.63,0,*4E
1520769946.48,6345,11.75,72812.0,9.09,-20.15,-20.19,0,*45
1520769947.69,6346,11.75,72808.5,9.09,-20.43,-20.43,0,*4A
1520769948.9,6347,11.75,72808.8,9.09,-20.59,-20.59,0,*4B
1520769950.14,6348,11.75,72810.5,9.09,-20.35,-20.19,0,*4A
1520769951.37,6349,11.75,72808.0,9.09,-20.43,-20.35,0,*44
1520769952.61,6350,11.75,72810.5,9.09,-20.15,-20.15,0,*4D
1520769953.81,6351,11.75,72810.8,9.09,-20.63,-20.73,0,*4D
1520769955.01,6352,11.75,72808.0,9.09,-19.99,-20.05,0,*40
1520769956.23,6353,11.75,72810.3,9.09,-19.95,-19.85,0,*4F
1520769957.46,6354,11.81,72814.3,9.09,-20.59,-20.35,0,*43
1520769958.67,6355,11.75,72808.8,9.09,-20.59,-20.59,0,*48
1520769959.89,6356,11.75,72808.8,9.09,-21.09,-20.99,0,*43
1520769961.12,6357,11.75,72810.3,9.11,-20.63,-20.63,0,*43
1520769962.38,6358,11.75,72812.3,9.09,-21.23,-21.23,0,*45
1520769963.62,6359,11.75,72808.8,9.11,-20.73,-20.79,0,*47
1520769964.85,6360,11.75,72810.0,9.11,-20.73,-20.63,0,*46
1520769966.09,6361,11.75,72808.5,9.05,-21.17,-21.27,0,*40
1520769967.31,6362,11.75,72810.8,9.09,-21.43,-21.57,0,*49
1520769968.54,6363,11.75,72810.8,9.09,-20.99,-20.93,0,*47
1520769969.76,6364,11.75,72808.3,9.09,-21.39,-21.53,0,*46
1520769970.97,6365,11.75,72810.0,9.05,-21.43,-21.47,0,*43
1520769972.23,6366,11.81,72812.3,9.05,-21.03,-20.99,0,*46
1520769973.47,6367,11.75,72814.3,9.05,-21.33,-21.43,0,*42
1520769974.71,6368,11.75,72810.5,9.05,-21.03,-21.17,0,*4F
1520769975.95,6369,11.75,72810.8,9.05,-20.39,-20.35,0,*47
1520769977.16,6370,11.75,72810.3,9.03,-20.89,-20.89,0,*45
1520769978.37,6371,11.75,72812.3,9.03,-20.69,-20.53,0,*4D
1520769979.62,6372,11.75,72808.0,9.05,-20.49,-20.25,0,*4B
1520769980.86,6373,11.75,72812.0,9.05,-20.39,-20.35,0,*4C
1520769982.12,6374,11.75,72808.5,9.05,-20.79,-20.79,0,*47
1520769983.33,6375,11.75,72810.5,9.09,-20.29,-20.19,0,*49
1520769984.55,6376,11.75,72808.8,9.09,-20.19,-20.05,0,*44
1520769985.77,6377,11.75,72808.3,9.09,-20.29,-20.19,0,*4B
1520769987.01,6378,11.75,72810.8,9.05,-20.93,-20.99,0,*41
1520769988.24,6379,11.75,72808.8,9.09,-20.59,-20.49,0,*47
1520769989.48,6380,11.75,72808.8,9.09,-21.03,-20.89,0,*43
1520769990.74,6381,11.81,72814.3,9.05,-20.99,-21.03,0,*4F
1520769992.01,6382,11.75,72812.8,9.05,-21.03,-21.03,0,*4E
1520769993.24,6383,11.75,72810.5,9.05,-20.35,-20.25,0,*4E
1520769994.47,6384,11.75,72810.8,9.11,-20.93,-20.93,0,*4D
1520769995.69,6385,11.75,72808.8,9.11,-20.05,-19.99,0,*43
1520769996.91,6386,11.75,72808.3,9.09,-20.43,-20.35,0,*47
1520769998.14,6387,11.75,72810.3,9.09,-20.79,-20.73,0,*4D
1520769999.37,6388,11.81,72810.3,9.09,-20.79,-20.89,0,*47
1520770000.58,6389,11.75,72808.5,9.05,-21.63,-21.63,0,*45
1520770001.84,6390,11.75,72808.3,9.05,-21.33,-21.33,0,*4D
1520770003.04,6391,11.75,72810.8,9.09,-21.13,-20.93,0,*49
1520770004.25,6392,11.81,72812.0,9.09,-20.63,-20.59,0,*4A
1520770005.45,6393,11.75,72810.3,9.09,-20.43,-20.29,0,*4E
1520770006.68,6394,11.75,72808.5,9.09,-20.59,-20.49,0,*44
1520770007.94,6395,11.75,72810.3,9.09,-21.53,-21.67,0,*43
1520770009.14,6396,11.81,72814.0,9.09,-20.93,-20.93,0,*47
1520770010.41,6397,11.75,72808.3,9.05,-20.99,-20.99,0,*4A
1520770011.65,6398,11.75,72806.5,9.05,-20.79,-20.63,0,*4E
1520770012.87,6399,11.75,72808.0,9.05,-20.25,-20.25,0,*44
1520770014.13,6400,11.75,72806.3,9.05,-20.79,-20.79,0,*43
1520770015.37,6401,11.75,72808.0,9.05,-20.63,-20.53,0,*41
1520770016.62,6402,11.75,72810.0,9.05,-20.63,-20.49,0,*49
1520770017.86,6403,11.81,72810.3,9.09,-20.35,-20.35,0,*4C
1520770019.12,6404,11.75,72808.5,9.05,-20.99,-20.99,0,*47
1520770020.33,6405,11.81,72810.3,9.09,-20.63,-20.43,0,*48
1520770021.57,6406,11.75,72806.3,9.09,-20.59,-20.49,0,*48
1520770022.76,6407,11.75,72808.8,9.09,-20.73,-20.63,0,*49
1520770023.98,6408,11.75,72806.5,9.09,-20.93,-20.79,0,*43
1520770025.19,6409,11.75,72806.3,9.09,-20.93,-20.93,0,*46
1520770026.42,6410,11.75,72808.0,9.09,-20.63,-20.49,0,*46
1520770027.64,6411,11.75,72808.8,9.09,-20.43,-20.35,0,*4E
1520770028.87,6412,11.75,72806.3,9.13,-20.53,-20.39,0,*4B
1520770030.1,6413,11.81,72810.3,9.11,-20.93,-20.93,0,*44
1520770031.33,6414,11.81,72812.5,9.11,-20.59,-20.59,0,*43
1520770032.57,6415,11.81,72810.5,9.11,-20.59,-20.43,0,*49
1520770033.84,6416,11.75,72808.0,9.11,-20.15,-20.19,0,*4D
1520770035.09,6417,11.75,72806.8,9.11,-20.49,-20.43,0,*4A
1520770036.3,6418,11.75,72808.8,9.13,-20.29,-20.15,0,*42
1520770037.53,6419,11.81,72808.3,9.13,-20.89,-20.83,0,*46
1520770038.76,6420,11.75,72808.3,9.13,-21.39,-21.23,0,*4D
1520770039.98,6421,11.81,72812.3,9.11,-20.73,-20.63,0,*44
1520770041.2,6422,11.81,72812.0,9.11,-20.73,-20.73,0,*46
1520770042.45,6423,11.75,72808.5,9.11,-20.93,-20.99,0,*4D
1520770043.69,6424,11.81,72808.5,9.13,-20.59,-20.53,0,*48
1520770044.88,6425,11.81,72810.0,9.13,-20.69,-20.69,0,*43
1520770046.11,6426,11.75,72810.0,9.11,-20.63,-20.59,0,*4B
1520770047.34,6427,11.75,72808.8,9.11,-20.63,-20.63,0,*43
1520770048.54,6428,11.81,72808.0,9.13,-21.09,-21.17,0,*41
1520770049.82,6429,11.75,72806.5,9.11,-20.99,-20.99,0,*4D
1520770051.05,6430,11.75,72808.0,9.11,-20.93,-20.89,0,*4E
1520770052.3,6431,11.81,72810.3,9.11,-20.89,-20.79,0,*4B
1520770053.57,6432,11.81,72810.0,9.11,-20.79,-20.79,0,*47
1520770054.79,6433,11.81,72810.3,9.11,-21.09,-21.13,0,*4D
1520770056.03,6434,11.75,72808.8,9.11,-20.35,-20.29,0,*4C
1520770057.25,6435,11.81,72810.8,9.11,-20.05,-19.95,0,*43
1520770058.48,6436,11.75,72808.8,9.13,-19.37,-19.31,0,*47
1520770059.72,6437,11.81,72810.0,9.15,-19.91,-19.85,0,*43
1520770060.92,6438,11.75,72808.5,9.13,-20.25,-20.25,0,*4F
1520770062.12,6439,11.81,72812.3,9.13,-20.69,-20.59,0,*4D
1520770063.37,6440,11.75,72808.8,9.13,-20.83,-20.83,0,*40
1520770064.61,6441,11.75,72810.0,9.15,-20.25,-20.19,0,*48
1520770065.81,6442,11.81,72808.5,9.13,-20.09,-20.09,0,*42
1520770067.07,6443,11.81,72808.8,9.15,-20.19,-20.19,0,*45
1520770068.31,6444,11.75,72810.3,9.19,-19.91,-19.85,0,*4B
1520770069.53,6445,11.75,72810.5,9.15,-20.25,-20.25,0,*43
1520770070.77,6446,11.81,72810.5,9.15,-20.19,-20.09,0,*41
1520770072.02,6447,11.81,72808.3,9.17,-20.79,-20.79,0,*43
1520770073.22,6448,11.81,72810.8,9.17,-20.63,-20.63,0,*4C
1520770074.45,6449,11.75,72806.5,9.17,-20.49,-20.39,0,*4A
1520770075.66,6450,11.81,72808.5,9.17,-20.29,-20.19,0,*46
1520770076.9,6451,11.81,72808.3,9.17,-20.35,-20.35,0,*44
1520770078.16,6452,11.75,72808.3,9.17,-20.53,-20.53,0,*47
1520770079.38,6453,11.75,72804.3,9.17,-20.89,-20.83,0,*4C
1520770080.63,6454,11.75,72806.8,9.19,-20.49,-20.59,0,*4E
1520770081.9,6455,11.75,72806.0,9.19,-20.79,-20.79,0,*4E
1520770083.1,6456,11.81,72810.3,9.17,-21.13,-21.13,0,*43
1520770084.34,6457,11.75,72806.8,9.17,-21.33,-21.33,0,*42
1520770085.56,6458,11.75,72804.5,9.17,-21.03,-21.13,0,*4C
1520770086.79,6459,11.81,72812.0,9.15,-20.89,-20.89,0,*4E
1520770088.03,6460,11.81,72810.3,9.17,-20.59,-20.49,0,*47
1520770089.26,6461,11.81,72810.5,9.17,-20.63,-20.49,0,*4F
1520770090.48,6462,11.75,72806.3,9.17,-20.19,-20.09,0,*45
1520770091.68,6463,11.81,72812.0,9.17,-20.63,-20.63,0,*45
1520770092.88,6464,11.81,72808.5,9.17,-20.69,-20.63,0,*48
1520770094.11,6465,11.75,72806.3,9.17,-20.39,-20.35,0,*4F
1520770095.35,6466,11.81,72808.5,9.17,-20.49,-20.19,0,*45
1520770096.6,6467,11.81,72808.0,9.19,-20.43,-20.35,0,*4E
1520770097.84,6468,11.81,72810.5,9.19,-20.29,-20.15,0,*4F
1520770099.1,6469,11.81,72810.0,9.19,-19.81,-19.81,0,*41
1520770100.34,6470,11.81,72808.0,9.19,-20.15,-20.05,0,*48
1520770101.54,6471,11.81,72810.0,9.21,-20.39,-20.29,0,*42
1520770102.76,6472,11.75,72804.5,9.21,-20.39,-20.15,0,*4E
1520770103.99,6473,11.81,72808.5,9.19,-20.43,-20.43,0,*4A
1520770105.24,6474,11.81,72808.8,9.19,-20.49,-20.43,0,*47
1520770106.48,6475,11.81,72808.8,9.19,-20.35,-20.29,0,*41
1520770107.7,6476,11.75,72808.3,9.21,-19.95,-19.81,0,*41
1520770108.92,6477,11.81,72808.3,9.23,-19.99,-19.99,0,*47